Flag for U.S.A. Weather past 2 weeks in Clovis, New Mexico, U.S.A.

Now
84 °F

Passing clouds.


Feels Like: 83 °F
Forecast: 63 / 85 °F
Wind: 18 mph from South

Location: Cannon Air Force Base / Clovis

Current Time: Aug 22, 2014 at 6:17:41 PM

Latest Report: Aug 22, 2014 at 4:58 PM


Visibility: 10 mi

Pressure: 29.83 "Hg

Humidity: 39%

Dew point: 56 °F

Location of ClovisLocation

Historic Weather in Clovis — Graph

°F

Clovis temperature yesterday

Maximum temperature yesterday: 94 °F (at 4:58 PM)
Minimum temperature yesterday: 64 °F (at 5:58 AM)
Average temperature yesterday: 80 °F

Past Weeks' High & Low Weather Summary

 TemperatureHumidityPressure
High94 °F (Aug 21, 4:58 PM)100% (Aug 9, 3:58 AM)30.20 "Hg (Aug 9, 3:58 AM)
Low61 °F (Aug 12, 5:58 AM)18% (Aug 18, 2:58 PM)29.70 "Hg (Aug 19, 4:58 PM)
Average76 °F58%29.94 "Hg
* Reported Aug 7 3:58 PM — Aug 22 3:58 PM, Clovis, Weather by CustomWeather, © 2014

Note: Actual official high and low records may vary slightly from our data, if they occured in-between our weather recording intervals... More about our weather records

Advertising

Clovis weather history for previous 24 hours

 ConditionsComfort  
Time TempWeatherWind HumidityBarometerVisibility
3:58 PM
Aug 22
89 °FSunny.16 mph30%29.82 "Hg10 mi
2:58 PM92 °FPassing clouds.18 mph28%29.84 "Hg10 mi
1:58 PM89 °FPassing clouds.12 mph31%29.86 "Hg10 mi
12:58 PM89 °FPassing clouds.17 mph31%29.87 "Hg10 mi
11:58 AM86 °FSunny.10 mph37%29.90 "Hg10 mi
10:58 AM85 °FSunny.14 mph40%29.90 "Hg10 mi
9:58 AM83 °FSunny.15 mph44%29.91 "Hg10 mi
8:58 AM81 °FSunny.13 mph48%29.90 "Hg10 mi
7:58 AM74 °FSunny.12 mph62%29.92 "Hg10 mi
6:58 AM70 °FClear.6 mph75%29.90 "Hg10 mi
5:58 AM70 °FClear.9 mph76%29.88 "Hg10 mi
4:58 AM71 °FClear.9 mph73%29.88 "Hg10 mi
3:58 AM71 °FClear.13 mph68%29.88 "Hg10 mi
2:58 AM71 °FClear.10 mph68%29.86 "Hg10 mi
1:58 AM74 °FClear.9 mph61%29.86 "Hg10 mi
12:58 AM76 °FPassing clouds.18 mph57%29.85 "Hg10 mi
11:58 PM
Aug 21
76 °FClear.20 mph57%29.88 "Hg10 mi
10:58 PM78 °FClear.16 mph45%29.88 "Hg10 mi
9:58 PM77 °FPassing clouds.6 mph43%29.88 "Hg10 mi
8:58 PM81 °FPassing clouds.8 mph36%29.86 "Hg10 mi
7:58 PM82 °FSunny.6 mph34%29.83 "Hg10 mi
6:58 PM91 °FSunny.10 mph25%29.82 "Hg10 mi
Weather by CustomWeather, © 2014

See weather overviewHow to use our weather pages